Regional Weather Roundup
Issued by NWS Wakefield, VA

Home | Current Version | Previous Version | Text Only | Print | Product List | Glossary On
Versions: 1 2 3 4 5 6 7 8 9 10 11 12 13 14 15 16 17 18 19 20 21 22 23 24 25 26 27 28 29 30 31 32 33 34 35 36 37 38 39 40 41 42 43 44 45 46 47 48 49 50
000
ASUS41 KAKQ 170310
RWRAKQ

REGIONAL WEATHER ROUNDUP
NATIONAL WEATHER SERVICE WAKEFIELD VA
1100 PM EDT TUE SEP 16 2014

Note: "fair" indicates few or no clouds below 12,000 feet with no
significant weather and/or obstructions to visibility. * = Denotes
station may not report precipitation (e.g., rain,snow,etc.),
thunder or fog.

VAZ042-051-052>054-056-170400-
NORTHERN VIRGINIA

CITY           SKY/WX    TMP DP  RH WIND       PRES   REMARKS
WASH NATIONAL  PTCLDY    67  52  58 N5        30.04R
DULLES         PTCLDY    58  51  78 CALM      30.05R
FORT BELVOIR   CLEAR     57  54  89 CALM      30.04R
QUANTICO       CLEAR     62  56  80 NW8       30.04S
FREDERICKSBRG* PTCLDY    63  56  78 CALM      30.03R
STAFFORD*      CLEAR     59  53  80 CALM      30.08R
WARRENTON      CLEAR     52  52 100 CALM      30.04S
CULPEPER*      CLEAR     55  54  94 CALM      30.06S
MANASSAS*      PTCLDY    55  54  94 CALM      30.05R
LEESBURG*      CLEAR     59  54  82 N6        30.06S
WINCHESTER     CLEAR     54  48  82 CALM      30.06S
FRONT ROYAL*   CLEAR     55  52  88 CALM      30.06R
LURAY*         MOCLDY    59  52  77 CALM      30.06S
$$

VAZ048-049-060>072-079>083-170400-
CENTRAL AND SOUTH CENTRAL VIRGINIA...AND NORTH CENTRAL NORTH CAROLINA

CITY           SKY/WX    TMP DP  RH WIND       PRES   REMARKS
RICHMOND       MOCLDY    70  58  65 NE5       30.02R
CHESTERFIELD*  CLOUDY   N/A N/A N/A CALM      30.02S
PETERSBURG*    CLOUDY    67  62  83 NE3       30.01S
HANOVER        CLOUDY    66  58  75 VRB3      30.03R
TAPPAHANNOCK*  MOCLDY    65  55  68 CALM      30.02S
CHARLOTTSVILLE MOCLDY    66  52  60 NE7       30.05R
ORANGE*        PTCLDY    61  52  72 CALM      30.06S
LOUISA*        CLOUDY    64  55  72 N5        30.03R
FARMVILLE*     MOCLDY    66  59  77 N5        30.00S
CREWE*         CLOUDY    71  59  64 CALM      30.02R
FORT PICKETT*  CLOUDY    67  62  85 NE5       30.01S
LUNENBURG*     CLOUDY    69  64  85 CALM      30.01S
SOUTH HILL*    CLOUDY    70  66  88 CALM      30.04F
LAWRENCEVILLE* CLOUDY    68  63  85 NE3       29.99F
ROANOKE RAPIDS CLOUDY    64  64 100 CALM      29.98S
RALEIGH        CLOUDY    72  65  78 CALM      29.98F
$$

VAZ088>098-170400-
SOUTHEAST VIRGINIA

CITY           SKY/WX    TMP DP  RH WIND       PRES   REMARKS
NORFOLK        CLOUDY    73  59  61 N5        30.00R
VIRGINIA BEACH CLOUDY    72  61  68 NE5       29.98S
NORFOLK NAVAL  CLOUDY    74  59  59 NE12      30.02R
WEST POINT*    CLOUDY    65  62  90 CALM      30.02R
NEWPORT NEWS   LGT RAIN  70  63  78 NE5       30.01R
LANGLEY AFB    DRIZZLE   68  68 100 SW2       30.00R
FORT EUSTIS    CLOUDY    69  69 100 E7        29.99R
WILLIAMSBURG*  MOCLDY    70  66  88 CALM      30.01S
HR EXEC AP*    MOCLDY    66  63  88 NE6       30.01F
FRANKLIN*        N/A     68  64  88 CALM      30.00S
WAKEFIELD      CLOUDY    69  63  81 CALM      30.01R
$$

VAZ020-022-025-037-045-170400-
WEST CENTRAL AND SOUTHWEST VIRGINIA

CITY           SKY/WX    TMP DP  RH WIND       PRES   REMARKS
STAUNTON*      CLOUDY    64  49  59 NE3       30.09R
HOT SPRINGS VA PTCLDY    51  37  60 NW5       30.14S
LYNCHBURG      PTCLDY    65  57  75 E6        30.04S
DANVILLE       CLOUDY    69  65  86 CALM      29.99S
SOUTH BOSTON*  NOT AVBL
MARTINSVILLE   PTCLDY    63  63 100 CALM      30.05R FOG
ROANOKE        MOCLDY    65  56  72 CALM      30.06R
BLACKSBURG     MOCLDY    61  57  88 N5        30.10S
DUBLIN*        CLOUDY    62  57  84 CALM      30.10S
MARION*        CLOUDY    60  58  94 CALM      30.11S
HILLSVILLE*    MOCLDY    59  56  91 N5        30.09S
RICHLANDS*     CLOUDY    62  59  90 NE3       30.10S
WISE*          CLOUDY    59  59 100 N7        30.11S
ABINGDON*      MOCLDY    61  60  94 CALM      30.07S
$$

MDZ021>025-VAZ099-100-170400-
SOUTHERN MARYLAND AND THE DELMARVA PENINSULA

CITY           SKY/WX    TMP DP  RH WIND       PRES   REMARKS
PATUXENT RIVER PTCLDY    66  55  67 NE8       30.01S
BAY BRIDGE APT   N/A     64  52  63 N6        30.03R
LEONARDTOWN    CLEAR     61  55  82 CALM      30.04R
DOVER          CLEAR     59  55  85 N6        30.00S
GEORGETOWN     CLEAR     62  56  80 VRB3      30.02R
EASTON         CLEAR     62  58  87 CALM      30.06
CAMBRIDGE      NOT AVBL
SALISBURY      PTCLDY    63  56  78 N5        30.00F
OCEAN CITY     CLEAR     61  57  87 N5        30.00S
WALLOPS ISLAND CLEAR     65  58  78 N6        30.00F
ACCOMACK*      PTCLDY    63  55  77 NE3       30.00S
$$

NCZ012>017-030>032-170400-
EASTERN NORTH CAROLINA

CITY           SKY/WX    TMP DP  RH WIND       PRES   REMARKS
ELIZABETH CITY PTCLDY    70  65  84 E7        29.98S
AHOSKIE*       CLOUDY    68  65  89 CALM      29.98F
EDENTON*       PTCLDY    69  64  86 NE3       29.98R
CURRITUCK*     PTCLDY    72  62  69 E6        29.99S
KILL DEVIL HLS PTCLDY    73  61  66 E5        29.97S
MANTEO         PTCLDY    72  62  71 E7        29.99R
CAPE HATTERAS  LGT RAIN  70  70 100 CALM      29.98S
TARBORO*       CLOUDY    70  68  94 CALM      29.97F
GOLDSBORO      CLOUDY    73  72  98 CALM      29.96R
WASHINGTON     CLOUDY    71  67  87 CALM      29.97S
GREENVILLE     CLOUDY    70  68  94 CALM      29.99R
NEW BERN       MOCLDY    74  70  87 CALM      29.97S
WILMINGTON     PTCLDY    72  70  93 N3        29.95S
$$

VAZ048-170400-
ELSEWHERE

CITY           SKY/WX    TMP DP  RH WIND       PRES   REMARKS
HARRISBURG PA  PTCLDY    59  53  80 N5        30.03S
BALTIMORE      PTCLDY    57  52  83 W3        30.04R
ANNAPOLIS      CLEAR     66  57  72 N7        30.03R
ANDREWS AFB    CLEAR     61  52  72 N2        30.03R
WILMINGTON DE  CLOUDY    60  54  80 NW3       30.04R
PHILADELPHIA   PTCLDY    65  50  58 NE6       30.03S
WILDWOOD NJ*   CLEAR     61  55  82 N3        30.02S
ATLANTIC CITY  CLEAR     60  58  92 CALM      30.02S
HENDERSON NC   CLOUDY    68  65  90 CALM      29.99F
GREENSBORO     MOCLDY    70  66  87 CALM      30.00R
ROCKY MOUNT    CLOUDY    70  68  93 CALM      29.96F
FAYETTEVILLE   LGT RAIN  69  66  90 N9        30.01R
CHARLOTTE      LGT RAIN  68  63  84 E8        29.99S
$$

VAZ100-170400-
MARINE

STATION/POSITION TIME  TEMP    WIND        PRES    WAVE   SWELL
                       AIR SEA DIR/SP/G            HT/PER HT/PER
                 (UTC) (F)     (DEG/KT/KT) (MB)    (FT/S) (FT/S)
44066 TX TWR #4  0300   67 74  350/  6/  8 1015.8R   2/12   2/12
CAPE MAY NJ      0300   65 76   50/  1/  2 1015.8S
LEWES DE         0300   70 73   60/  9/ 10 1016.0S
15NM E FENWICK I 0300   70 72              1015.6S   2/ 4
OCEAN-CITY-INLET 0300   70 72   80/  5/  7 1015.5F
WACHAPREAGUE VA  0300   67 76  360/  4/  7 1015.7R
THOMAS POINT MD  0300   68 75  360/ 10/ 11 1017.7R
GOOSES REEF MD   0300   71      60/ 10/ 12 1017.0F
COVE POINT MD    0300   69      50/ 10/ 13 1016.3F
SOLOMONS ISLAND  0300      76                N/A
BISHOPS HEAD MD  0300   69 74   40/  8/ 11 1015.7F
PINEY POINT MD   0300           50/  4/  6   N/A
POTOMAC MD       0300   72      60/ 12/ 16 1015.4F
CAMBRIDGE MD     0300   67 75   40/  5/  6 1016.2R
LEWISETTA VA     0300   71 74   50/  9/ 11 1015.6S
RAPPAHANNOCK LGT 0300           20/ 17/ 19 1016.0R
STINGRAY PT      0300   74      50/ 14/ 16   N/A
YORK RVR RNG VA  0300   74      40/ 10/ 12 1015.3R
YORKTOWN VA      0300   72 77   70/  4/  5 1015.5F
JAMESTOWN VA     0300   70     110/  2/  4   N/A
DOMINION TERM VA 0300   71      30/  3/  4 1016.0S
KIPTOPEKE VA     0300      79   50/  5/  7   N/A
CHES BAY BRIDGE  0300   73 76   40/ 12/ 14 1015.0R
CAPE HENRY VA    0300   74      40/ 13/ 15 1014.3R
CHESAPEAKE LGHT  0200   74      30/ 14/ 16 1015.7S
WILLOUBY STN VA  0300   72      20/  8/  9 1014.7F
S CRANEY ISL VA  0300           10/  8/ 11 1015.4F
CAPE HENRY BUOY  0300      75                N/A     2/13   2/13
1ST LANDING BUOY 0300   74      50/ 12/ 16 1015.0R
CAPE CHARLES BUO 0300      75                N/A     2/13   2/13
OFFSHORE WE BUOY 0300      75                N/A     2/13   2/13
64NM E OF VA BCH 0300   74 79   60/ 12/ 14 1014.8R   3/13   2/13
DUCK PIER NC     0300   74 77   60/ 12/ 13 1014.7S
44100 DUCK FRF   0300      75                N/A     2/13   2/13
44056 DUCK FRF   0200                        N/A     2/13   2/13
OREGON INLET NC  0300   74 76   60/  8/ 12 1015.1F
HATTERAS NC      0300   71 80  150/  1/  4 1015.5S
DIAMOND SHLS NC  0300   77     270/  2/  4 1014.6S   2/12   2/12
CAPE LOOKOUT NC  0200   78     200/  7/  8 1014.3F
$$



USA.gov is the U.S. government's official web portal to all federal, state and local government web resources and services.